Location: Campillo
(40.8621°N, 4.2488°W)
Time: 15:45:01
(UTC+00:00)

USA 306 - Pass Details

Date: 30 September 2021
Orbit: 564 x 573 km, 54.0° (Epoch: 24 September)

Event Time Altitude Azimuth Distance (km) Brightness Sun altitude
Rises 19:18:33 0° 313° (NW) 2,761 7.4 -15.6°
Reaches altitude 10° 19:20:54 10° 321° (NW) 1,863 6.2 -16.0°
Maximum altitude 19:24:56 42° 33° (NNE) 817 3.5 -16.7°
Enters shadow 19:26:14 32° 76° (ENE) 978 3.6 -17.0°
